Wind_Speed
23 23 23 23 23 23 21 19 19 20 21 21 22 22 22 22 22 22 20 19 18 18 18 18 18 18 17 16 16 15 15 15 14 14 13 13 13 13 13 12 12 12 11 11 11 11 10 10 9
24 24 25 25 25 23 21 20 20 21 22 22 22 22 23 23 23 23 22 21 20 20 20 19 19 19 19 18 17 17 16 16 16 15 15 15 15 14 14 14 14 14 13 13 13 12 12 12 11
25 26 26 26 26 24 22 22 22 23 23 23 23 23 23 23 24 24 23 23 22 22 22 21 21 21 21 20 20 19 18 18 17 17 17 16 16 16 15 15 15 15 15 15 14 14 14 14 14
26 27 27 27 26 25 24 23 23 24 24 24 23 23 23 23 24 24 25 25 24 24 23 23 23 22 22 22 22 21 20 20 19 19 19 18 18 17 17 17 17 17 17 16 16 15 15 15 15
27 27 28 28 27 26 25 25 25 25 25 25 24 24 24 24 24 25 26 26 26 25 25 25 24 24 24 24 23 23 22 22 21 21 20 20 19 19 18 18 18 18 17 17 17 16 16 16 17
28 29 29 28 27 27 26 26 27 27 27 26 25 25 24 25 25 26 26 26 26 26 26 26 26 25 25 25 25 25 24 23 23 22 22 22 21 20 20 20 19 19 19 19 18 18 17 17 17
30 30 30 28 28 27 27 27 28 28 28 27 27 26 25 26 26 27 27 27 27 27 27 27 27 26 26 26 26 26 26 26 25 24 23 23 22 22 22 21 21 21 21 20 20 19 19 18 18
31 32 31 29 29 28 28 28 28 28 28 28 28 27 26 27 27 28 28 28 28 28 28 27 27 27 27 28 28 28 27 27 27 26 25 24 24 24 24 23 23 22 22 22 21 21 20 20 20
33 33 31 30 30 30 30 29 29 29 29 29 29 29 28 28 29 29 29 30 29 29 29 28 28 27 27 28 28 28 28 28 28 28 27 26 26 25 25 25 25 24 24 24 23 23 23 22 22
34 34 32 31 31 31 31 31 30 30 29 29 29 30 29 29 30 30 30 30 30 30 31 30 30 29 29 29 29 28 29 29 29 29 28 28 28 27 27 27 26 26 26 26 25 25 25 25 24
35 34 33 33 33 33 33 33 32 31 30 30 31 31 30 30 31 31 31 30 31 31 32 32 31 31 30 30 30 30 30 29 29 30 29 29 28 29 28 28 28 28 28 28 28 28 27 27 27
36 35 35 35 36 36 35 34 34 33 31 32 32 32 31 31 32 32 33 31 31 31 32 32 33 31 31 31 31 30 31 31 30 30 30 30 30 30 30 30 30 29 29 30 30 30 30 29 29
37 36 36 37 38 38 37 36 36 34 33 34 34 33 33 32 32 33 33 33 32 32 32 32 33 32 31 32 32 31 31 31 31 31 31 31 31 31 31 31 31 31 31 31 32 32 32 32 31
38 37 37 38 39 38 38 38 38 35 35 36 35 35 34 34 33 33 34 34 33 32 32 32 32 33 33 33 33 32 32 32 32 32 32 32 33 32 33 33 33 34 34 34 34 34 34 34 33
38 38 38 37 38 38 39 39 38 36 36 36 36 36 35 34 34 34 35 34 34 33 32 32 32 34 34 33 33 33 33 33 33 33 33 33 34 34 34 35 36 36 36 36 36 36 35 35 35
39 39 39 37 38 39 40 39 37 39 38 37 37 36 36 35 35 35 35 35 34 35 34 33 33 34 35 34 34 33 33 34 34 34 34 34 35 35 35 36 37 38 38 38 38 38 38 37 37
39 40 39 38 39 40 41 39 38 39 39 39 38 37 36 35 35 35 35 35 35 36 35 34 34 35 35 35 34 34 34 35 35 35 35 35 36 36 36 37 38 39 39 39 40 39 39 39 39
39 39 39 38 39 40 41 40 39 39 39 39 38 38 37 36 35 35 35 35 36 36 36 35 34 34 35 35 35 34 35 36 36 35 36 36 36 37 38 38 39 40 40 40 40 40 40 40 40
40 40 39 38 39 41 41 40 39 40 39 38 38 38 37 36 35 36 35 36 35 34 35 34 34 34 34 35 35 35 35 36 36 35 35 36 36 37 38 39 40 40 41 41 41 41 40 40 40
40 40 39 39 39 41 41 40 39 40 40 39 38 38 38 37 36 35 35 35 35 34 34 35 34 34 34 35 36 36 36 36 36 37 36 36 37 38 39 39 40 41 42 42 42 42 41 41 41
40 40 39 40 40 41 41 41 38 38 39 39 39 38 38 37 36 36 35 35 34 34 34 35 35 35 35 35 35 36 37 37 37 38 38 37 38 38 39 39 39 40 41 42 42 42 42 42 42
40 39 40 40 40 40 41 42 38 38 38 38 38 38 37 37 36 35 35 35 35 35 35 36 35 36 36 36 35 35 36 37 38 38 38 38 38 38 39 39 40 40 40 41 41 41 42 43 43
40 39 40 41 41 41 41 43 40 37 37 37 37 37 38 38 37 36 36 35 35 35 36 36 36 36 36 36 36 36 36 36 37 37 38 38 38 39 39 39 40 41 41 41 41 42 43 44 45
39 40 40 40 41 43 40 42 41 38 36 36 37 37 37 38 38 37 36 35 35 36 36 36 37 37 37 37 36 36 36 36 37 37 37 37 38 39 39 40 40 41 41 42 43 43 44 44 45
38 38 39 41 42 43 40 41 41 38 37 36 36 36 36 37 38 37 36 36 36 36 36 36 36 36 36 36 36 36 36 37 37 37 37 37 37 38 39 39 40 41 42 43 43 42 43 44 45
37 37 38 40 41 41 41 41 39 37 36 36 36 36 35 35 36 37 36 36 37 37 37 37 36 36 36 36 36 36 36 37 37 38 37 37 38 38 39 39 39 39 41 42 42 42 42 42 43
36 36 36 38 40 40 40 40 38 37 36 35 35 35 35 35 35 36 36 36 36 36 36 36 37 36 36 36 36 36 37 37 37 38 38 38 38 38 38 38 38 38 39 40 41 41 41 42 43
34 34 35 36 37 38 38 37 36 35 35 34 34 35 34 34 34 34 35 35 34 34 35 35 35 35 36 36 37 37 38 38 38 38 38 36 36 37 37 37 36 37 38 39 39 39 40 41 42
33 32 33 35 37 38 37 36 35 34 34 34 34 33 34 34 35 35 35 34 34 34 34 34 34 35 35 35 36 36 37 37 37 36 36 36 34 35 35 35 36 37 38 38 38 38 40 41 42
32 32 33 34 36 38 38 35 33 32 33 33 33 33 33 34 34 34 34 33 33 33 33 33 34 34 35 35 35 36 36 36 36 35 35 35 34 34 34 35 35 36 36 37 37 38 39 40 41
Wind_Direction
253 253 254 254 255 255 256 256 255 255 255 255 255 255 255 254 253 253 251 248 245 245 247 248 249 249 248 247 245 245 245 244 244 242 241 241 242 245 248 247 248 249 250 253 251 250 253 255 257
253 253 254 255 256 256 256 256 256 257 256 256 256 256 256 255 254 253 251 249 246 246 248 249 249 249 248 247 246 246 246 246 247 245 244 244 244 246 248 248 249 251 251 253 252 250 250 253 255
254 254 255 255 256 258 258 257 256 257 257 257 257 257 256 256 254 253 251 250 249 248 249 250 250 249 249 248 248 247 247 247 247 247 246 247 247 247 248 249 250 251 252 253 253 251 250 252 255
256 256 255 256 257 257 257 257 256 255 256 257 257 256 257 256 254 253 251 251 251 251 250 250 250 250 249 248 247 248 248 248 248 248 247 248 249 250 250 249 251 252 253 253 252 252 251 251 253
257 256 256 257 258 257 256 256 255 255 255 256 256 256 257 256 255 253 253 252 251 252 252 251 250 250 250 248 247 247 248 249 250 249 249 248 249 250 251 251 251 252 252 253 252 252 252 252 254
257 257 257 258 258 257 255 254 255 255 256 256 257 257 257 256 255 254 253 253 251 251 251 251 250 250 249 249 248 247 248 249 249 249 249 249 249 249 250 251 252 252 253 253 253 252 251 252 254
258 257 257 258 257 257 256 255 255 255 256 256 257 257 258 257 256 255 253 252 251 250 250 250 249 249 249 249 248 247 247 248 248 249 249 249 250 250 250 251 251 253 253 254 253 252 252 251 254
259 258 257 257 258 257 256 256 255 255 255 256 257 257 257 257 256 255 254 252 251 249 249 249 249 248 248 249 249 248 247 247 248 248 248 249 250 250 250 251 251 252 253 254 254 252 252 253 254
259 259 259 259 258 257 256 256 255 255 255 256 256 257 257 257 256 255 254 252 251 250 248 248 248 248 248 249 249 249 247 247 247 248 249 250 251 252 252 252 252 252 253 254 254 254 254 254 255
259 259 260 259 257 256 255 255 254 255 255 255 256 257 257 256 255 255 253 253 251 250 247 247 248 248 248 248 248 250 249 248 247 248 249 250 251 252 253 253 253 252 253 253 254 255 256 255 256
261 260 259 257 257 256 255 254 254 254 256 256 256 256 256 256 255 255 253 252 249 249 248 247 247 248 247 247 248 249 250 249 249 249 249 250 251 252 253 254 253 253 254 253 254 255 257 256 255
262 260 258 257 257 256 255 255 254 255 255 255 256 255 255 255 255 254 253 251 249 250 248 247 247 248 246 246 248 249 250 249 250 250 250 251 251 253 253 253 253 253 253 254 254 255 256 257 256
262 260 258 257 257 256 255 255 255 255 255 254 254 254 254 254 254 253 252 250 250 250 249 248 246 246 245 245 247 249 249 250 250 251 251 251 252 254 254 254 254 254 253 253 254 256 256 257 258
262 261 259 257 257 257 255 254 254 254 254 254 253 253 253 253 253 253 252 252 251 251 249 249 247 245 244 245 246 248 249 249 250 251 252 252 253 255 256 255 255 254 254 254 255 256 257 257 258
261 261 260 258 258 257 256 254 254 254 255 254 253 252 252 252 252 252 252 252 251 250 249 250 250 247 245 246 246 248 249 250 251 252 253 254 254 255 256 256 255 255 255 255 255 256 257 258 258
261 261 260 259 258 257 256 254 254 254 254 254 253 252 252 252 252 252 253 252 250 249 249 251 250 248 246 248 248 249 250 251 252 253 255 256 256 257 257 256 256 256 256 256 256 257 258 259 259
261 261 260 258 258 257 257 256 253 254 254 253 253 252 252 252 253 252 252 252 251 250 250 251 250 249 249 249 248 250 251 252 254 255 256 257 257 257 258 258 256 256 256 256 256 257 257 258 258
263 261 259 258 258 258 257 256 253 253 253 252 252 251 252 252 253 253 253 251 250 250 251 252 252 253 252 250 250 252 252 253 255 257 258 259 260 259 260 259 257 256 256 256 256 256 256 256 257
262 261 260 259 259 258 257 256 253 251 251 251 251 251 251 251 251 253 252 250 249 252 253 253 253 253 253 252 253 254 253 254 256 258 259 261 262 261 260 259 259 257 256 256 256 256 256 256 256
261 260 260 259 258 258 257 255 253 251 250 250 249 249 250 250 250 252 253 251 250 252 254 253 254 254 254 254 255 254 255 256 258 259 261 262 263 261 260 259 259 258 256 256 256 256 256 256 256
259 259 260 260 259 258 258 255 253 251 249 248 248 248 249 250 250 250 251 251 252 252 253 254 255 255 255 256 257 256 256 257 258 260 261 262 262 262 260 259 259 258 257 256 256 256 255 255 255
258 258 258 258 259 258 257 258 252 251 249 248 247 247 248 249 249 249 250 251 252 252 253 254 254 256 257 258 258 258 258 258 259 261 262 263 262 262 261 260 259 258 257 256 255 255 255 255 254
258 257 257 257 258 258 256 257 253 251 249 249 248 248 248 247 248 249 249 251 250 250 252 253 254 256 257 258 257 258 259 260 260 261 263 263 262 262 262 260 259 259 257 257 257 256 256 255 255
257 257 257 257 257 257 256 257 255 251 249 249 249 250 249 247 247 248 249 249 249 250 252 253 254 255 256 257 257 259 260 260 261 262 263 264 263 263 262 261 261 260 258 258 258 258 257 257 256
256 256 257 256 256 258 257 258 257 253 251 250 249 250 251 249 247 247 248 248 248 250 252 253 254 255 256 256 257 259 260 261 262 263 263 263 263 262 263 263 262 261 260 259 258 258 259 258 257
254 254 255 257 259 259 258 258 259 257 253 251 249 250 251 250 248 247 247 248 248 249 252 253 254 254 255 257 258 259 262 263 264 263 263 263 262 261 262 263 262 261 261 260 259 258 258 258 257
253 253 254 257 258 259 258 258 258 257 255 253 251 250 250 248 247 246 247 248 250 251 252 253 254 255 257 258 259 260 262 263 264 264 263 263 261 262 262 263 263 263 262 261 260 259 257 257 257
255 254 253 254 256 256 257 257 258 256 256 254 251 251 250 247 246 247 248 250 252 254 253 254 254 254 256 258 259 260 262 263 264 265 263 262 261 261 262 262 263 264 263 262 260 259 258 258 258
252 252 253 254 254 255 256 256 256 256 255 254 253 252 251 248 247 248 249 251 252 253 253 254 254 255 257 258 259 261 261 263 263 262 262 260 260 260 261 262 263 264 263 262 261 261 260 260 259
252 251 252 254 254 254 254 255 255 255 254 253 252 251 250 248 247 247 247 248 249 251 252 254 254 256 257 258 259 261 261 262 260 260 260 258 260 263 262 263 264 265 264 263 262 261 261 262 262
Height
5807 5808 5809 5810 5811 5812 5813 5815 5815 5816 5817 5818 5819 5820 5821 5823 5825 5828 5828 5829 5830 5831 5833 5834 5835 5836 5838 5839 5840 5842 5843 5844 5846 5847 5848 5850 5851 5852 5854 5855 5856 5857 5858 5859 5860 5861 5862 5863 5864
5803 5804 5805 5805 5806 5807 5809 5810 5811 5811 5812 5813 5814 5815 5816 5818 5819 5821 5822 5824 5826 5827 5829 5830 5832 5833 5834 5836 5837 5838 5840 5841 5843 5844 5846 5847 5848 5850 5851 5852 5853 5854 5856 5857 5858 5859 5860 5861 5862
5798 5798 5800 5800 5801 5803 5805 5806 5806 5807 5807 5809 5810 5811 5812 5813 5814 5816 5818 5819 5821 5823 5824 5826 5828 5829 5830 5832 5834 5835 5836 5838 5839 5841 5842 5844 5845 5846 5848 5849 5850 5851 5853 5854 5855 5856 5857 5858 5859
5793 5794 5795 5796 5796 5798 5800 5801 5801 5802 5803 5804 5805 5806 5807 5809 5810 5811 5813 5814 5816 5818 5820 5822 5823 5825 5826 5828 5829 5831 5832 5834 5836 5837 5839 5840 5842 5843 5844 5846 5847 5848 5849 5851 5852 5853 5855 5856 5857
5787 5788 5789 5790 5791 5793 5794 5795 5796 5797 5798 5799 5800 5801 5803 5804 5805 5806 5808 5809 5811 5813 5815 5817 5818 5820 5821 5823 5825 5826 5828 5830 5832 5833 5835 5836 5838 5839 5841 5842 5843 5845 5846 5847 5849 5850 5851 5852 5853
5782 5782 5783 5784 5786 5787 5788 5789 5790 5791 5792 5793 5795 5796 5797 5799 5800 5801 5803 5804 5806 5808 5810 5811 5813 5815 5816 5818 5820 5822 5823 5825 5827 5829 5831 5832 5834 5835 5837 5838 5840 5841 5842 5844 5845 5847 5848 5849 5850
5776 5776 5777 5779 5780 5781 5783 5783 5784 5785 5787 5788 5789 5790 5792 5793 5794 5795 5797 5799 5800 5802 5804 5805 5807 5809 5811 5813 5815 5817 5818 5820 5822 5824 5826 5828 5829 5831 5832 5834 5836 5837 5838 5840 5841 5843 5844 5845 5846
5768 5770 5770 5772 5774 5775 5776 5777 5778 5779 5780 5782 5783 5785 5786 5787 5788 5789 5791 5793 5794 5796 5798 5800 5801 5803 5805 5807 5809 5811 5813 5815 5817 5819 5821 5823 5824 5826 5828 5829 5831 5833 5834 5835 5837 5838 5840 5841 5842
5761 5763 5764 5766 5767 5768 5769 5770 5772 5773 5774 5775 5777 5778 5780 5781 5782 5783 5784 5786 5788 5790 5792 5794 5795 5797 5799 5801 5803 5805 5807 5809 5811 5813 5815 5817 5819 5821 5823 5824 5826 5827 5829 5831 5832 5833 5835 5836 5837
5754 5755 5758 5759 5759 5760 5761 5763 5764 5766 5767 5769 5770 5771 5772 5774 5775 5776 5778 5779 5781 5783 5785 5787 5789 5791 5793 5795 5797 5799 5801 5803 5805 5807 5809 5811 5813 5815 5817 5819 5820 5822 5824 5825 5827 5828 5830 5831 5833
5746 5748 5750 5751 5751 5752 5753 5755 5757 5758 5761 5762 5763 5764 5765 5767 5768 5770 5771 5772 5774 5776 5778 5780 5783 5784 5786 5788 5790 5792 5795 5797 5799 5801 5803 5805 5807 5809 5811 5813 5814 5816 5818 5819 5821 5822 5824 5826 5827
5738 5740 5741 5742 5743 5744 5745 5747 5749 5751 5754 5754 5755 5756 5758 5759 5760 5762 5763 5765 5767 5769 5771 5772 5775 5777 5779 5781 5783 5786 5788 5790 5792 5794 5796 5798 5800 5802 5804 5806 5808 5809 5811 5813 5814 5816 5818 5819 5821
5729 5731 5732 5733 5734 5735 5737 5739 5740 5743 5745 5746 5747 5748 5750 5751 5752 5754 5755 5757 5759 5761 5762 5764 5767 5769 5771 5774 5776 5778 5780 5783 5785 5787 5789 5791 5793 5795 5797 5799 5801 5802 5804 5806 5807 5809 5811 5812 5814
5720 5721 5723 5724 5725 5726 5728 5730 5732 5736 5737 5737 5739 5740 5742 5743 5744 5746 5748 5749 5751 5753 5754 5756 5759 5761 5763 5766 5768 5770 5772 5775 5777 5780 5781 5783 5785 5787 5789 5791 5793 5794 5796 5798 5800 5801 5803 5805 5807
5711 5712 5714 5715 5716 5718 5718 5721 5724 5727 5727 5729 5730 5732 5733 5735 5736 5738 5740 5741 5743 5745 5747 5749 5750 5753 5755 5758 5760 5762 5765 5767 5769 5772 5773 5775 5777 5779 5781 5782 5784 5786 5788 5789 5791 5793 5795 5797 5799
5701 5701 5704 5708 5707 5708 5709 5712 5716 5716 5718 5720 5721 5723 5725 5726 5728 5730 5731 5733 5735 5737 5739 5741 5743 5744 5747 5750 5752 5754 5757 5759 5761 5763 5765 5767 5768 5770 5772 5773 5775 5777 5778 5780 5782 5784 5786 5788 5790
5691 5692 5694 5697 5697 5697 5698 5702 5707 5707 5708 5710 5713 5714 5716 5718 5720 5721 5722 5724 5726 5728 5731 5733 5735 5737 5740 5742 5744 5746 5748 5751 5753 5754 5756 5758 5759 5761 5762 5764 5765 5767 5769 5771 5773 5775 5777 5779 5781
5682 5682 5683 5686 5687 5687 5688 5691 5695 5696 5698 5701 5703 5705 5707 5710 5712 5713 5714 5716 5718 5720 5722 5725 5727 5729 5732 5734 5736 5738 5740 5742 5744 5746 5747 5749 5750 5751 5752 5754 5755 5757 5759 5761 5763 5765 5767 5770 5772
5671 5671 5673 5676 5676 5676 5678 5680 5684 5686 5688 5691 5694 5696 5699 5701 5703 5704 5705 5707 5709 5712 5714 5716 5718 5721 5723 5725 5728 5730 5732 5734 5735 5737 5738 5739 5740 5741 5742 5744 5745 5746 5748 5750 5752 5755 5757 5760 5762
5660 5661 5663 5665 5665 5665 5667 5670 5673 5675 5678 5682 5684 5687 5689 5692 5694 5696 5698 5699 5702 5704 5705 5708 5710 5712 5715 5717 5719 5721 5723 5725 5726 5727 5728 5729 5730 5731 5732 5733 5734 5736 5738 5740 5742 5745 5747 5750 5752
5650 5651 5653 5654 5654 5655 5656 5659 5664 5667 5668 5671 5675 5677 5680 5683 5685 5688 5690 5692 5694 5696 5698 5700 5702 5704 5706 5708 5710 5712 5714 5715 5717 5718 5719 5719 5720 5720 5721 5723 5724 5726 5727 5729 5732 5734 5737 5739 5741
5639 5642 5642 5643 5643 5644 5647 5647 5655 5657 5659 5663 5666 5668 5671 5674 5677 5679 5682 5684 5686 5688 5690 5692 5694 5695 5697 5699 5701 5703 5705 5706 5707 5708 5709 5710 5710 5711 5711 5713 5714 5716 5717 5719 5721 5723 5725 5728 5730
5629 5630 5631 5632 5632 5634 5636 5637 5644 5647 5651 5654 5657 5659 5662 5665 5668 5671 5673 5676 5678 5679 5681 5683 5685 5687 5689 5690 5692 5694 5695 5696 5697 5699 5699 5700 5700 5701 5702 5703 5704 5706 5708 5709 5711 5712 5714 5716 5719
5617 5619 5620 5621 5621 5623 5628 5628 5632 5638 5642 5645 5648 5650 5652 5655 5659 5661 5664 5666 5668 5670 5672 5674 5676 5678 5680 5681 5683 5684 5686 5687 5688 5689 5690 5690 5691 5691 5692 5693 5694 5696 5697 5699 5700 5702 5703 5705 5707
5607 5609 5610 5610 5610 5614 5619 5619 5624 5630 5633 5636 5639 5641 5643 5646 5649 5652 5655 5657 5659 5662 5664 5666 5667 5669 5671 5672 5674 5675 5677 5678 5679 5680 5680 5681 5681 5682 5682 5683 5684 5685 5687 5688 5689 5691 5693 5694 5696
5597 5599 5601 5602 5603 5605 5608 5610 5617 5620 5623 5626 5629 5632 5634 5637 5640 5643 5646 5648 5650 5653 5655 5657 5658 5660 5661 5663 5665 5666 5667 5668 5669 5670 5671 5671 5671 5672 5673 5673 5674 5675 5676 5677 5678 5680 5682 5683 5685
5587 5589 5592 5593 5593 5595 5597 5602 5607 5611 5613 5616 5619 5622 5625 5628 5631 5633 5636 5639 5641 5643 5645 5647 5649 5650 5652 5654 5655 5656 5658 5659 5659 5660 5661 5661 5662 5663 5663 5664 5665 5665 5666 5667 5668 5669 5671 5673 5675
5579 5581 5582 5583 5584 5585 5589 5593 5598 5602 5604 5607 5610 5613 5616 5619 5621 5624 5627 5629 5632 5634 5636 5637 5639 5641 5643 5644 5646 5647 5648 5649 5649 5650 5651 5652 5652 5653 5654 5654 5655 5656 5657 5657 5658 5659 5661 5662 5664
5571 5572 5573 5574 5576 5578 5580 5587 5589 5593 5596 5599 5601 5604 5607 5609 5612 5615 5618 5620 5622 5625 5626 5628 5630 5631 5633 5635 5636 5637 5638 5639 5640 5640 5641 5642 5643 5644 5645 5646 5646 5647 5648 5648 5649 5650 5651 5653 5654
5561 5563 5565 5567 5568 5569 5572 5579 5581 5584 5586 5589 5591 5594 5597 5600 5603 5606 5609 5611 5614 5615 5617 5619 5620 5622 5624 5625 5626 5627 5628 5629 5630 5631 5632 5633 5634 5635 5636 5636 5637 5638 5639 5639 5640 5641 5642 5644 5645